Simultaneous Nadir Overpasses (SNOs) Predictions

Prediction of SNOs between LANDSAT-8 and METOP-A Satellite Orbit:

Table of predicted SNOs for the next 14.0 days since TLE Epoch: 10/17/2020
Index Date (LANDSAT-8) Time (LANDSAT-8) Lat,Lon (LANDSAT-8) SZA (LANDSAT-8 ) Date (METOP-A) Time (METOP-A) Lat,Lon (METOP-A) SZA (METOP-A ) Distance(km) Time Diff (sec)
1 10/18/2020 03:05:44 81.45, 179.50 94.13 10/18/2020 03:05:10 81.45, 179.56 94.12 1.05 34
2 10/18/2020 03:55:11 -81.44, -12.99 85.87 10/18/2020 03:55:50 -81.44, -12.83 85.84 2.54 39
3 10/20/2020 22:39:59 81.45,-114.00 95.16 10/20/2020 22:39:33 81.45,-114.03 95.14 1.00 26
4 10/20/2020 23:29:26 -81.45, 53.55 84.84 10/20/2020 23:30:13 -81.44, 53.59 84.82 1.23 47
5 10/23/2020 18:14:13 81.45, -47.52 96.16 10/23/2020 18:13:55 81.44, -47.64 96.14 2.26 18
6 10/23/2020 19:03:40 -81.45, 120.05 83.84 10/23/2020 19:04:35 -81.44, 119.99 83.83 1.72 55
7 10/26/2020 13:48:28 81.45, 18.92 97.13 10/26/2020 13:48:18 81.44, 18.73 97.10 3.31 10
8 10/26/2020 14:37:56 -81.43,-173.88 82.92 10/26/2020 14:38:59 -81.45,-174.02 82.90 2.60 63
9 10/29/2020 09:22:44 81.44, 84.94 98.01 10/29/2020 09:22:41 81.44, 85.09 98.03 2.70 3
